Location: Ferma
(41.9500°N, 44.5167°E)
Time: 03:47:37
(UTC+00:00)

NOSS 2-3 (D) - Pass Details

Date: 31 May 2022
Orbit: 536 x 1674 km, 63.3° (Epoch: 02 June)

Event Time Altitude Azimuth Distance (km) Brightness Sun altitude
Rises 16:57:04 0° 332° (NNW) 3,267 8.6 -5.0°
Reaches altitude 10° 17:00:14 10° 354° (N) 2,530 7.4 -5.5°
Maximum altitude 17:04:00 17° 33° (NNE) 2,300 6.5 -6.1°
Drops below altitude 10° 17:08:22 10° 72° (ENE) 3,033 6.8 -6.7°
Sets 17:12:42 0° 90° (E) 4,247 7.4 -7.3°
